Faith, SD

3:57 PM MST on February 13, 2016 (GMT -0700)
Faith

Weather History for KD07 - October, 2012

Change the Weather History Date:

Tuesday, October 30, 2012

  Actual Average Record
Temperature  
Mean Temperature 54 °F 41 °F  
Max Temperature 68 °F 52 °F 73 °F (2008)
Min Temperature 40 °F 30 °F 9 °F (2002)
Degree Days  
Heating Degree Days 11 24  
Month to date heating degree days 605 543  
Since 1 July heating degree days 721 775  
Cooling Degree Days 0 0  
Month to date cooling degree days 0 0  
Year to date cooling degree days 971 634  
Growing Degree Days 4 (Base 50)    
Moisture  
Dew Point 38 °F    
Average Humidity 61    
Maximum Humidity 89    
Minimum Humidity 32    
Precipitation  
Precipitation 0.00 in 0.05 in 0.26 in (2005)
Month to date precipitation 0.26 1.49  
Year to date precipitation 12.32 16.67  
Sea Level Pressure  
Sea Level Pressure 30.01 in    
Wind  
Wind Speed 7 mph (WNW)    
Max Wind Speed 25 mph    
Max Gust Speed 31 mph    
T = Trace of Precipitation, MM = Missing Value Source: NWS Daily Summary

Daily Weather History Graph

Daily Weather History Graph

Search for Another Location

Airport or City:

Trip Planner

Search our weather history database for the weather conditions in past years. The results will help you decide how hot, cold, wet, or windy it might be!

Date:

Astronomy

Oct. 30, 2012 Rise Set
Actual Time 7:24 AM MDT 5:38 PM MDT
Civil Twilight 6:54 AM MDT 6:08 PM MDT
Nautical Twilight 6:19 AM MDT 6:43 PM MDT
Astronomical Twilight 5:45 AM MDT 7:17 PM MDT
Moon 6:05 PM MDT (10/30) 8:16 AM MDT (10/30)
Length of Visible Light 11h 14m
Length of Day
10h 13m
Full, 99% of the Moon is Illuminated
Oct 30
Full
Nov 6
Last Quarter
Nov 13
New
Nov 20
First Quarter
Nov 28
Full

Hourly Weather History & Observations

Time (MDT) Temp. Windchill Dew Point Humidity Pressure Visibility Wind Dir Wind Speed Gust Speed Precip Events Conditions
12:56 AM 46.9 °F - 36.0 °F 66% 29.96 in - SE 8.1 mph - N/A   Unknown
1:56 AM 45.0 °F 40.1 °F 35.1 °F 68% 29.98 in - SSE 9.2 mph - N/A   Unknown
2:25 AM 46.4 °F - 35.6 °F 66% 29.96 in - North - - N/A   Unknown
2:56 AM 44.1 °F 42.5 °F 35.1 °F 71% 29.99 in - WSW 3.5 mph - N/A   Unknown
3:56 AM 48.9 °F - 37.0 °F 64% 29.99 in - West 3.5 mph - N/A   Unknown
4:56 AM 50.0 °F - 41.0 °F 71% 29.96 in - WSW 8.1 mph - N/A   Unknown
5:56 AM 46.0 °F 43.9 °F 39.9 °F 79% 30.01 in - NW 4.6 mph - N/A   Unknown
6:56 AM 45.0 °F 41.2 °F 39.9 °F 82% 30.01 in - NW 6.9 mph - N/A   Unknown
7:56 AM 43.0 °F 38.2 °F 39.0 °F 86% 30.04 in - WSW 8.1 mph - N/A   Unknown
8:56 AM 51.1 °F - 43.0 °F 74% 30.04 in - West 6.9 mph - N/A   Unknown
9:56 AM 55.0 °F - 43.0 °F 64% 30.03 in - WNW 5.8 mph - N/A   Unknown
10:56 AM 60.1 °F - 42.1 °F 51% 30.02 in - WNW 6.9 mph - N/A   Unknown
11:56 AM 61.0 °F - 42.1 °F 50% 30.02 in - NW 11.5 mph - N/A   Unknown
12:56 PM 64.0 °F - 43.0 °F 46% 30.01 in - NNW 9.2 mph - N/A   Unknown
1:56 PM 66.9 °F - 37.0 °F 33% 29.98 in - NNW 13.8 mph - N/A   Unknown
2:56 PM 66.9 °F - 36.0 °F 32% 29.99 in - NW 15.0 mph - N/A   Unknown
3:56 PM 64.0 °F - 35.1 °F 34% 29.99 in - NNW 9.2 mph - N/A   Unknown
4:56 PM 60.1 °F - 36.0 °F 41% 30.00 in - NW 5.8 mph - N/A   Unknown
5:56 PM 55.9 °F - 36.0 °F 47% 30.01 in - NW 9.2 mph - N/A   Unknown
6:56 PM 53.1 °F - 35.1 °F 50% 30.02 in - WNW 6.9 mph - N/A   Unknown
7:56 PM 50.0 °F - 35.1 °F 57% 30.04 in - NW 5.8 mph - N/A   Unknown
8:56 PM 48.9 °F - 36.0 °F 61% 30.03 in - North 6.9 mph - N/A   Unknown
9:56 PM 48.9 °F - 36.0 °F 61% 30.02 in - NNE 6.9 mph - N/A   Unknown
10:56 PM 44.1 °F 40.8 °F 35.1 °F 71% 30.02 in - SW 5.8 mph - N/A   Unknown
11:56 PM 48.0 °F - 35.1 °F 61% 30.01 in - West 3.5 mph - N/A   Unknown